Olathe, KS

1:33 PM CDT on May 26, 2018 (GMT -0500)
Johnson County Executive

Weather History for KOJC - November, 2013

Change the Weather History Date:

Thursday, November 28, 2013

  Actual Average Record
Temperature  
Mean Temperature 33 °F 38 °F  
Max Temperature 41 °F 47 °F 69 °F (1949)
Min Temperature 25 °F 29 °F 3 °F (1976)
Degree Days  
Heating Degree Days 32 27  
Month to date heating degree days 662 576  
Since 1 July heating degree days 1010 901  
Cooling Degree Days 0 0  
Month to date cooling degree days 0 0  
Year to date cooling degree days 1360 1349  
Moisture  
Dew Point 17 °F    
Average Humidity 56    
Maximum Humidity 68    
Minimum Humidity 44    
Precipitation  
Precipitation 0.00 in 0.07 in 0.77 in (1982)
Month to date precipitation 1.31 2.35  
Year to date precipitation 36.19 38.26  
Sea Level Pressure  
Sea Level Pressure 30.34 in    
Wind  
Wind Speed 7 mph (NNW)    
Max Wind Speed 14 mph    
Max Gust Speed 19 mph    
Visibility 10 miles    
Events      
T = Trace of Precipitation, MM = Missing Value Source: NWS Daily Summary

Daily Weather History Graph

Daily Weather History Graph

Search for Another Location

Airport or City:

Astronomy

Nov. 28, 2013 Rise Set
Actual Time 7:15 AM CST 4:58 PM CST
Civil Twilight 6:46 AM CST 5:27 PM CST
Nautical Twilight 6:13 AM CST 6:00 PM CST
Astronomical Twilight 5:41 AM CST 6:32 PM CST
Moon 2:21 AM CST (11/28) 2:05 PM CST (11/28)
Length of Visible Light 10h 41m
Length of Day
9h 42m
Waning Crescent, 22% of the Moon is Illuminated
Nov 28
Waning Crescent
Dec 2
New
Dec 9
First Quarter
Dec 17
Full
Dec 25
Last Quarter

Hourly Weather History & Observations

Time (CST) Temp. Windchill Dew Point Humidity Pressure Visibility Wind Dir Wind Speed Gust Speed Precip Events Conditions
12:53 AM 26.1 °F 16.2 °F 12.9 °F 58% 30.19 in 10.0 mi SSW 10.4 mph - N/A   Clear
1:53 AM 27.0 °F 18.0 °F 12.9 °F 56% 30.18 in 10.0 mi SSW 9.2 mph - N/A   Clear
2:53 AM 28.0 °F 20.8 °F 12.9 °F 53% 30.19 in 10.0 mi SW 6.9 mph - N/A   Clear
3:53 AM 30.0 °F 21.1 °F 14.0 °F 51% 30.20 in 10.0 mi WSW 10.4 mph - N/A   Clear
4:53 AM 28.0 °F 20.8 °F 14.0 °F 56% 30.21 in 10.0 mi SW 6.9 mph - N/A   Clear
5:53 AM 26.1 °F 20.5 °F 15.1 °F 63% 30.23 in 10.0 mi SW 4.6 mph - N/A   Clear
6:53 AM 26.1 °F 19.4 °F 15.1 °F 63% 30.26 in 10.0 mi WSW 5.8 mph - N/A   Clear
7:53 AM 26.1 °F 19.4 °F 15.1 °F 63% 30.28 in 10.0 mi West 5.8 mph - N/A   Clear
8:53 AM 30.0 °F 23.2 °F 18.0 °F 61% 30.30 in 10.0 mi WNW 6.9 mph - N/A   Clear
9:53 AM 34.0 °F 26.0 °F 19.0 °F 54% 30.32 in 10.0 mi North 10.4 mph - N/A   Clear
10:53 AM 36.0 °F 28.5 °F 19.0 °F 50% 30.35 in 10.0 mi North 10.4 mph - N/A   Clear
11:53 AM 39.0 °F 31.8 °F 19.9 °F 46% 30.35 in 10.0 mi North 11.5 mph - N/A   Clear
12:53 PM 41.0 °F 35.2 °F 21.0 °F 45% 30.35 in 10.0 mi NNW 9.2 mph - N/A   Clear
1:53 PM 41.0 °F 35.8 °F 21.0 °F 45% 30.35 in 10.0 mi North 8.1 mph - N/A   Clear
2:53 PM 39.9 °F 33.9 °F 21.0 °F 47% 30.36 in 10.0 mi NW 9.2 mph - N/A   Clear
3:53 PM 39.9 °F 34.5 °F 21.0 °F 47% 30.38 in 10.0 mi North 8.1 mph - N/A   Clear
4:53 PM 36.0 °F 31.1 °F 19.9 °F 52% 30.40 in 10.0 mi North 5.8 mph - N/A   Clear
5:53 PM 33.1 °F 27.7 °F 19.9 °F 59% 30.43 in 10.0 mi North 5.8 mph - N/A   Clear
6:53 PM 32.0 °F 26.4 °F 19.0 °F 59% 30.45 in 10.0 mi North 5.8 mph - N/A   Clear
7:53 PM 30.9 °F 26.2 °F 19.0 °F 61% 30.47 in 10.0 mi North 4.6 mph - N/A   Clear
8:53 PM 28.9 °F 22.8 °F 18.0 °F 64% 30.48 in 10.0 mi North 5.8 mph - N/A   Clear
9:53 PM 28.0 °F 21.7 °F 18.0 °F 66% 30.49 in 10.0 mi NE 5.8 mph - N/A   Clear
10:53 PM 27.0 °F 20.5 °F 17.1 °F 66% 30.50 in 10.0 mi NE 5.8 mph - N/A   Clear
11:53 PM 26.1 °F 19.4 °F 17.1 °F 69% 30.50 in 10.0 mi NE 5.8 mph - N/A   Clear